Tracking 20037 objects as of 20-Nov-2019
Live streaming from Space Station
objects crossing your sky now

LEASAT 5

Track LEASAT 5 now!
LEASAT 5 is classified as:


NORAD ID: 20410
Int'l Code: 1990-002B
Perigee: 35,954.7 km
Apogee: 36,013.1 km
Inclination: 11.8 °
Period: 1,445.8 minutes
Semi major axis: 42354 km
RCS: 12.5892 m2 (large)
Launch date: January 9, 1990
Source: United States (US)
Launch site: AIR FORCE EASTERN TEST RANGE (AFETR)

Ultra High Frequency (UHF) satellite communications services to Australia; leased at end of use by U.S. Navy to Royal Australian Navy.
aabbcc
Your satellite tracking list
Your tracking list is empty




NASA's NSSDC Master Catalog

Two Line Element Set (TLE):
1 20410U 90002B   19322.99750274 -.00000283  00000-0  00000+0 0  9991
2 20410  11.7534   5.0186 0006897 351.5069  16.1026  0.99597250 94497
Source of the keplerian elements: AFSPC